Location: Madden
(51.3728°N, 114.3297°W)
Time: 06:51:06
(UTC+00:00)

PCSat - Pass Details

Date: 05 December 2023
Orbit: 784 x 791 km, 67.0° (Epoch: 02 March)

Event Time Altitude Azimuth Distance (km) Brightness Sun altitude
Exits shadow 10:47:07 16° 82° (E) 1,961 12.1 -42.0°
Drops below altitude 10° 10:48:57 10° 64° (ENE) 2,356 12.6 -41.8°
Sets 10:52:01 0° 47° (NE) 3,291 13.5 -41.3°
